JCSAT-2B

Last updated on Fri Dec 19 2025 00:02:51 GMT+0000 (Coordinated Universal Time)

1 41471U 16028A 25352.58706832 -.00000140 00000+0 00000+0 0 9994 2 41471 0.0181 350.5005 0000771 280.3158 181.9691 1.00270685 35315
UTC large
Height (km)
Speed (km/s)
/
Latitude / Longitude
Inclination (degrees)
Orbital Period (minutes)
Azimuth
Elevation
Range (km)
Doppler Factor

Next 0 passes for location: London (51.5072 / 0.1276)

Sorry there are no passes over London.